Flag for U.S.A. Weather past 2 weeks in Sunnyvale, California, U.S.A.

Now
53 °F

Passing clouds.


Feels Like: 53 °F
Forecast: 43 / 62 °F
Wind: No wind

Location: Moffett Field

Current Time: Mar 2, 2015 at 7:50:53 PM

Latest Report: Mar 2, 2015 at 6:56 PM


Visibility: 10 mi

Pressure: 29.90 "Hg

Humidity: 66%

Dew point: 42 °F

Location of SunnyvaleLocation

Historic Weather in Sunnyvale — Graph

°F

Sunnyvale temperature yesterday

Maximum temperature yesterday: 63 °F (at 2:56 PM)
Minimum temperature yesterday: 40 °F (at 5:56 AM)
Average temperature yesterday: 52 °F

Past Weeks' High & Low Weather Summary

 TemperatureHumidityPressure
High71 °F (Feb 16, 1:56 PM)97% (Mar 1, 3:56 AM)30.38 "Hg (Mar 1, 3:56 AM)
Low38 °F (Feb 24, 6:56 AM)17% (Feb 24, 11:56 AM)29.75 "Hg (Feb 28, 3:56 AM)
Average55 °F66%30.03 "Hg
* Reported Feb 15 5:56 PM — Mar 2 5:56 PM, Sunnyvale, Weather by CustomWeather, © 2015

Note: Actual official high and low records may vary slightly from our data, if they occured in-between our weather recording intervals... More about our weather records

Advertising

Sunnyvale weather history for previous 24 hours

 ConditionsComfort  
Time TempWeatherWind HumidityBarometerVisibility
5:56 PM
Mon, Mar 2
55 °FPassing clouds.5 mph64%29.86 "Hg10 mi
4:56 PM56 °FSunny.5 mph65%29.84 "Hg10 mi
3:56 PM55 °FPartly sunny.9 mph69%29.83 "Hg10 mi
2:56 PM56 °FLight rain. Mostly cloudy.8 mph67%29.83 "Hg10 mi
1:56 PM58 °FPassing clouds.7 mph56%29.82 "Hg10 mi
12:56 PM60 °FPartly sunny.3 mph47%29.82 "Hg10 mi
11:56 AM58 °FScattered clouds.5 mph51%29.83 "Hg10 mi
10:56 AM56 °FPartly sunny.6 mph62%29.84 "Hg10 mi
9:56 AM55 °FSunny.8 mph67%29.85 "Hg10 mi
8:56 AM53 °FPartly sunny.6 mph69%29.86 "Hg10 mi
7:56 AM48 °FSunny.9 mph77%29.86 "Hg10 mi
6:56 AM45 °FSunny.3 mph80%29.86 "Hg10 mi
5:56 AM44 °FClear.No wind79%29.86 "Hg10 mi
4:56 AM45 °FClear.No wind76%29.86 "Hg10 mi
3:56 AM46 °FClear.3 mph71%29.87 "Hg10 mi
2:56 AM47 °FClear.3 mph71%29.88 "Hg10 mi
1:56 AM48 °FClear.3 mph68%29.90 "Hg10 mi
12:56 AM48 °FClear.3 mph66%29.93 "Hg10 mi
11:56 PM
Sun, Mar 1
49 °FClear.3 mph66%29.94 "Hg10 mi
10:56 PM51 °FClear.5 mph63%29.95 "Hg10 mi
9:56 PM52 °FClear.3 mph64%29.96 "Hg10 mi
8:56 PM54 °FClear.No wind62%29.96 "Hg10 mi
7:56 PM53 °FClear.7 mph66%29.96 "Hg10 mi
Weather by CustomWeather, © 2015

See weather overviewHow to use our weather pages